Location: Mountain Grove
(34.0887°N, 86.6172°W)
Time: 21:44:22
(UTC+00:00)

Meteor 2-11 Rocket - Pass Details

Date: 14 July 2020
Orbit: 939 x 957 km, 82.5° (Epoch: 08 August)

Event Time Altitude Azimuth Distance (km) Brightness Sun altitude
Exits shadow 08:44:46 38° 212° (SSW) 1,392 4.8 -20.9°
Maximum altitude 08:47:03 64° 278° (W) 1,034 4.4 -20.6°
Drops below altitude 10° 08:53:04 10° 360° (N) 2,660 7.4 -19.7°
Sets 08:55:36 0° 3° (N) 3,607 8.2 -19.3°
